Regional Weather Roundup
Issued by NWS Wakefield, VA

Home | Current Version | Previous Version | Text Only | Print | Product List | Glossary On
Versions: 1 2 3 4 5 6 7 8 9 10 11 12 13 14 15 16 17 18 19 20 21 22 23 24 25 26 27 28 29 30 31 32 33 34 35 36 37 38 39 40 41 42 43 44 45 46 47 48 49
000
ASUS41 KAKQ 261410
RWRAKQ

REGIONAL WEATHER ROUNDUP
NATIONAL WEATHER SERVICE WAKEFIELD VA
900 AM EST MON JAN 26 2015

Note: "fair" indicates few or no clouds below 12,000 feet with no
significant weather and/or obstructions to visibility. * = Denotes
station may not report precipitation (e.g., rain,snow,etc.),
thunder or fog.

VAZ042-051-052>054-056-261500-
NORTHERN VIRGINIA

CITY           SKY/WX    TMP DP  RH WIND       PRES   REMARKS
WASH NATIONAL  LGT SNOW  37  31  78 NE13      29.80F
DULLES         LGT SNOW  33  30  88 E13       29.78S FOG     WCI  24
FORT BELVOIR   CLOUDY    35  33  92 VRB6      29.78F
QUANTICO       LGT RAIN  38  34  85 NE13      29.78F
FREDERICKSBRG* RAIN      40  40 100 E7        29.75S
STAFFORD*      LGT RAIN  38  32  78 NE7       29.79F
WARRENTON      RAIN      38  38 100 NE6       29.75F
CULPEPER*      LGT RAIN  39  37  93 E3        29.76S
MANASSAS*      CLOUDY    36  36 100 E9        29.77F
LEESBURG*      LGT SNOW  32  32 100 NE7       29.80S
WINCHESTER     LGT SNOW  34  32  93 E7        29.76S
FRONT ROYAL*   CLOUDY    32  32 100 CALM      29.73S VSB 1
LURAY*         LGT SNOW  34  34 100 N6        29.72S VSB 1
$$

VAZ048-049-060>072-079>083-261500-
CENTRAL AND SOUTH CENTRAL VIRGINIA

CITY           SKY/WX    TMP DP  RH WIND       PRES   REMARKS
RICHMOND       LGT RAIN  40  38  93 NE3       29.73F
CHESTERFIELD*  CLOUDY    39  28  65 E5        29.73F
PETERSBURG*    CLOUDY    42  40  93 NE3       29.73S
HANOVER        CLOUDY    39  37  92 CALM      29.75S FOG
TAPPAHANNOCK*  CLOUDY    41  36  83 E9        29.75S
QUINTON*       CLOUDY    39  36  89 CALM      29.73F
CHARLOTTSVILLE LGT RAIN  36  34  92 NE9       29.72S FOG
GORDONSVILLE*  CLOUDY    37  37  98 CALM      29.73S FOG
ORANGE*        LGT RAIN  37  37 100 N3        29.75S
LOUISA*        DRIZZLE   39  37  93 CALM      29.71S
BUMPASS*       CLOUDY    38  37  97 E5        29.73F
FARMVILLE*     CLOUDY    42  42 100 NE6       29.69S FOG
CREWE*         CLOUDY    38  37  95 CALM      29.70S
FORT PICKETT*  CLOUDY    38  37  98 E3        29.69F
CHASE CITY*    CLOUDY    41  41 100 SE3       29.69S
CLARKSVILLE*   CLOUDY    37  37 100 E3        29.68S
SOUTH HILL*    CLOUDY    37  35  96 CALM      29.75S
LAWRENCEVILLE* CLOUDY    37  36  96 CALM      29.70S
EMPORIA*       CLOUDY    37  36  93 NE3       29.72S
$$

VAZ088>098-261500-
SOUTHEAST VIRGINIA

CITY           SKY/WX    TMP DP  RH WIND       PRES   REMARKS
NORFOLK        CLOUDY    44  39  82 VRB3      29.71F
VIRGINIA BEACH CLOUDY    47  41  80 E6        29.70F
NORFOLK NAVAL  CLOUDY    46  39  76 NE6       29.73S
WEST POINT*    CLOUDY    46  36  70 NE6       29.75S
SALUDA*        FAIR      40  36  86 NE7       29.73F
NEWPORT NEWS   PTSUNNY   44  37  76 NE5       29.72F
LANGLEY AFB    CLOUDY    42  38  87 NE6       29.72F
FORT EUSTIS    PTSUNNY   41  40  96 VRB2      29.70F
WILLIAMSBURG*    N/A     45  41  87 NE5       29.74S
HR EXEC AP*    PTSUNNY   39  37  93 CALM      29.74R
FRANKLIN*      PTSUNNY   35  35  98 CALM      29.72S
WAKEFIELD      PTSUNNY   42  37  82 NE3       29.72F
$$

VAZ020-022-025-037-045-261500-
WEST CENTRAL AND SOUTHWEST VIRGINIA

CITY           SKY/WX    TMP DP  RH WIND       PRES   REMARKS
STAUNTON*      LGT SNOW  34  32  92 N3        29.71S
WAYNESBORO*    CLOUDY    34  34  99 CALM      29.69R
HOT SPRINGS VA FOG       32  32 100 CALM      29.58S VSB<1/4
LYNCHBURG      CLOUDY    37  37 100 N10       29.69S FOG
DANVILLE       PTSUNNY   40  37  89 NE5       29.68S
SOUTH BOSTON*  CLOUDY    40  38  95 CALM      29.69S
MARTINSVILLE   MOSUNNY   36  36 100 N5        29.69S
ROANOKE        CLOUDY    38  33  82 NW3       29.70R
BLACKSBURG     CLOUDY    34  32  93 CALM      29.68R
DUBLIN*        CLOUDY    37  37  97 CALM      29.66S
MARION*        CLOUDY    37  36  93 W6        29.65F
HILLSVILLE*    MIX PCPN  35  34  96 CALM      29.62S
RICHLANDS*     LGT RAIN  36  34  92 W6        29.63S
WISE*          CLOUDY    36  36 100 W6        29.66R
ABINGDON*      DRIZZLE   39  39  97 W5        29.66R
$$

MDZ021>025-VAZ099-100-261500-
SOUTHERN MARYLAND AND THE DELMARVA PENINSULA

CITY           SKY/WX    TMP DP  RH WIND       PRES   REMARKS
PATUXENT RIVER CLOUDY    39  34  82 NE10      29.76F
BAY BRIDGE APT LGT SNOW  32  32 100 NE8       29.81F
LEONARDTOWN    CLOUDY    36  34  93 NE5       29.78S
DOVER          FLURRIES  33  33 100 NE15G25   29.83F WCI  22
GEORGETOWN     CLOUDY    38  34  85 NE17G23   29.79F
EASTON         CLOUDY    36  36 100 E12G23    29.82F
CAMBRIDGE      CLOUDY    37  34  87 NE12G17   29.76F
SALISBURY      CLOUDY    43  36  76 NE16G25   29.74F
OCEAN CITY     CLOUDY    42  38  85 NE15G25   29.76F
WALLOPS ISLAND CLOUDY    42  39  89 NE18      29.74F
ACCOMACK*      CLOUDY    43  37  81 E9        29.72F
$$

NCZ012>017-030>032-261500-
NORTH CENTRAL AND EASTERN NORTH CAROLINA

CITY           SKY/WX    TMP DP  RH WIND       PRES   REMARKS
ROANOKE RAPIDS CLOUDY    37  36  93 NE3       29.70S
RALEIGH        LGT RAIN  41  39  93 CALM      29.68S FOG
ELIZABETH CITY CLOUDY    44  41  89 CALM      29.70F
AHOSKIE*       CLOUDY    36  35  96 N5        29.70F
EDENTON*       CLOUDY    42  41  95 CALM      29.71S
CURRITUCK*     CLOUDY    46  42  88 CALM      29.71F
KILL DEVIL HLS CLOUDY    47  46  93 CALM      29.68S
MANTEO         CLOUDY    48  45  87 N5        29.69S
CAPE HATTERAS  CLOUDY    50  45  83 CALM      29.68F
TARBORO*       FAIR      39  38  95 N3        29.70F
GOLDSBORO      PTSUNNY   41  41 100 NE6       29.65F
WASHINGTON     PTSUNNY   40  39  96 E3        29.67F
GREENVILLE     MOSUNNY   37  37 100 CALM      29.71F FOG
NEW BERN       CLOUDY    45  41  86 CALM      29.67F
WILMINGTON     CLOUDY    48  45  89 W6        29.65F
$$

VAZ048-261500-
ELSEWHERE

CITY           SKY/WX    TMP DP  RH WIND       PRES   REMARKS
HARRISBURG PA  FLURRIES  24  19  81 E7        29.88S
BALTIMORE      LGT SNOW  31  29  92 E13       29.82F VSB 1   WCI  21
ANNAPOLIS      LGT SNOW  33  30  88 NE10      29.81F VSB 3/4 WCI  25
ANDREWS AFB    CLOUDY    32  32 100 E12       29.78F WCI  23
PHILADELPHIA   LGT SNOW  28  23  81 NE14G23   29.92F WCI  17
HENDERSON NC   LGT RAIN  40  38  93 E3        29.68F
GREENSBORO     PTSUNNY   40  36  86 VRB3      29.64S
ROCKY MOUNT    CLOUDY    40  37  89 N8        29.70S
$$

VAZ100-261500-
MARINE

STATION/POSITION TIME  TEMP    WIND        PRES    WAVE   SWELL
                       AIR SEA DIR/SP/G            HT/PER HT/PER
                 (UTC) (F)     (DEG/KT/KT) (MB)    (FT/S) (FT/S)
BRANDYWINE LGT   1300   34 37   70/ 26/ 31 1009.7F
CAPE MAY NJ      1300   35 39   60/ 15/ 22 1009.7F
LEWES DE         1300   38 38   70/ 28/ 34 1008.9F
15NM E FENWICK I 1400   44 42              1007.8F   5/ 6
OCEAN-CITY-INLET 1300   42 40   60/ 10/ 18 1007.9F
WACHAPREAGUE VA  1300   42 42   40/ 12/ 17 1006.9F
THOMAS POINT MD  1400   33 37   50/ 13/ 14 1010.2F
GOOSES REEF MD   1400   36     VRB 16/ 19  1007.3F
COVE POINT MD    1300   36      70/ 15/ 18 1007.8F
SOLOMONS ISLAND  1300      39                N/A
BISHOPS HEAD MD  1300   39 38   50/ 14/ 18 1006.6F
PINEY POINT MD   1300           70/ 10/ 14   N/A
POTOMAC MD       1400   39      60/ 14/ 16 1006.1F
CAMBRIDGE MD     1300   37 36   60/ 16/ 19 1008.2F
LEWISETTA VA     1300   39 38   60/ 13/ 18 1007.1F
RAPPAHANNOCK LGT 1300           30/ 12/ 13 1006.8F
STINGRAY PT      1400   40      50/ 12/ 14 1007.1F
YORK RVR RNG VA  1300   41      50/ 12/ 13 1005.6F
YORKTOWN VA      1300   42 40   70/  7/  9 1006.0F
JAMESTOWN VA     1400   40      CALM  /  2   N/A
DOMINION TERM VA 1300   43      30/  4/  6 1006.0F
KIPTOPEKE VA     1300      46   80/  8/ 12   N/A
CHES BAY BRIDGE  1300   42 41   40/ 10/ 11 1005.2F
CAPE HENRY VA    1300   43      40/  8/  9 1004.5F
CHESAPEAKE LGHT  1300   47      70/ 12/ 12 1007.0S
WILLOUBY STN VA  1300   42      50/  7/  8 1006.7F
S CRANEY ISL VA  1300           30/  5/  6 1005.7F
CAPE HENRY BUOY  1400      43                N/A     2/ 9
1ST LANDING BUOY 1400   43      50/ 10/ 12 1005.4F
CAPE CHARLES BUO 1400      42                N/A     2/ 9   2/ 9
OFFSHORE WE BUOY 1400      47                N/A     3/ 8   2/ 8
64NM E OF VA BCH 1400   54 52   40/ 10/ 14 1004.8F   3/ 8   2/ 8
DUCK PIER NC     1300   46 44   30/  6/  7 1004.8F
44100 DUCK FRF   1400      44                N/A     2/ 9   2/12
44056 DUCK FRF   1400      43                N/A     2/10
OREGON INLET NC  1300   47 46  320/  3/  5 1005.1F
HATTERAS NC      1300   51 54  290/  2/  3 1005.5F


USA.gov is the U.S. government's official web portal to all federal, state and local government web resources and services.